Погода Энгозеро

Поиск расширенной информации на нашем сайте:

Полезная информация:

Новости сайта



02.01.2020
Опубликован Долгосрочный прогноз погоды по городам России и ближнего зарубежья на январь 2020 года.
Карты: Прогноз на январь и февраль 2020 года, Сравнение прогнозируемой аномалии приземной температуры воздуха на январь 2020 года по разным моделям.




Погода Энгозеро - сегодня

Время (UTC), дата Ветер
(°,м/с) 
Видим.   Явления Облачность Т
(°С)
Тd
(°С)
f(%) Тe
(°С)
Pmin
(гПа)
dP
(гПа)
Po
(мм)
O2
(г/м3)
Тmin Tmax R s Состояние
почвы
12 29.11.20 220 (ЮЗ) 20000 м  {ливн. осадки}  10/10 360 м кучево-дожд. 
[Cb cap]
-2.9 -3.8 93 -4  1031.8  -0.4  766  312           
15 29.11.20 210 (ЮЗ) 50000 м    10/10 400 м кучево-дожд. 
[Cb cap]
-3.2 -3.9 95 -4  1031.1  -0.7  766  313      0.2     
18 29.11.20 200 (Ю) 13000 м  слаб. ливневой снег  10/10 300 м кучево-дожд. 
[Cb cap]
-4.2 -4.7 96 -5  1030.5  -0.6  765  314    -2.7  0.2     
21 29.11.20 210 (ЮЗ) 50000 м  {ливн. осадки}  10/10 300 м кучево-дожд. 
[Cb cap]
-4.8 -5.5 95 -7  1029.8  -0.7  765  314           
00 30.11.20 210 (ЮЗ) 50000 м  {ливн. осадки}  10/10 300 м кучево-дожд. 
[Cb cap]
-4.7 -5.3 96 -6  1029.2  -0.6  764  314           
03 30.11.20 200 (Ю) 50000 м    10/10 330 м кучево-дожд. 
[Cb cap]
-4.4 -5.1 95 -7  1027.8  -1.4  763  313  -4.9    0.2     
06 30.11.20 230 (ЮЗ) 50000 м    10/10 300 м 
[St]
-4.9 -5.3 97 -6  1026.8  -1  762  313  -5    0.2  15  равномерный
сухой снег
100% 
09 30.11.20 190 (Ю) 20000 м    10/10 800 м 
[Sc]
-4.7 -5.2 96 -6  1025.5  -1.3  761  313           
12 30.11.20 180 (Ю) 20000 м    10/10 300 м 
[St]
-4.4 -4.6 99 -6  1023.3  -2.1  760  312           
15 30.11.20 180 (Ю) 50000 м    10/10 180 м 
[St]
-3.2 -3.6 97 -4  1021.2  -2.1  758  310           
18 30.11.20 190 (Ю) 50000 м  {снег}  10/10 180 м 
[St]
-2.5 -2.5 100 -4  1019.4  -1.7  757  308    -2.4  0.0     
21 30.11.20 200 (Ю) 50000 м    10/10 180 м 
[St]
-1.5 -1.5 100 -2  1017.5  -1.9  755  306           
00 01.12.20 210 (ЮЗ) 11000 м  снежные зёрна  10/10 300 м 
[St]
-0.6 -0.6 100 -1  1016  -1.4  754  305           
03 01.12.20 200 (Ю) 9000 м  слаб. снег  10/10 360 м 
[Frnb|Ns]
-1.1 -1.2 99 -2  1014.4  -1.6  753  305  -3.2    0.3     
06 01.12.20 230 (ЮЗ) 12000 м  слаб. снег  10/10 300 м 
[Frnb|Ns]
-1.3 -1.3 100 -1  1013.6  -0.8  753  305  -2.5    17  равномерный
сухой снег
100% 
09 01.12.20 220 (ЮЗ) 20000 м  {снег}  9/9 480 м кучево-дожд. 
[Cb cap]
-2.3 -2.7 97 -3  1014.3  0.6  753  306           
12 01.12.20 210 (ЮЗ) 20000 м  {снег}  9/9 660 м 
[Sc]
-2.9 -3.4 96 -4  1014.2  -0.1  753  307           
15 01.12.20 210 (ЮЗ) 50000 м    10/10 400 м кучево-дожд. 
[Cb cap]
-3.7 -4.5 94 -5  1014.6  0.4  753  308      0.7     
21 01.12.20 240 (ЮЗ) 50000 м    9/0 средняя 
[Ac trans]
-6.1 -6.5 97 -6  1016.7  1.3  755  312           
00 02.12.20 250 (З) 50000 м    9/0 средняя 
[Ac trans]
-4.5 -4.8 98 -4  1018.9  2.3  756  310           
03 02.12.20 240 (ЮЗ) 50000 м    10/10 1000 м 
[Sc]
-3.2 -3.6 97 -3  1020.6  1.7  758  309  -7.7    0.0     
06 02.12.20 260 (З) 50000 м  в посл. час ливневой снег  10/10 300 м кучево-дожд. 
[Cb cap]
-2.2 -2.5 98 -2  1022.2  1.6  759  309  -7.7    0.0  17  равномерный
сухой снег
100% 
09 02.12.20 240 (ЮЗ) 20000 м    9/9 400 м кучево-дожд. 
[Cb cap]
-3.4 -4.2 94 -3  1023.5  1.3  760  311           
12 02.12.20 250 (З) 20000 м    10/10 330 м кучево-дожд. 
[Cb cap]
-4.3 -4.8 96 -6  1023.6  760  312           
15 02.12.20 250 (З) 50000 м    10/10 400 м кучево-дожд. 
[Cb cap]
-3.6 -4.5 93 -6  1023.6  0.1  760  311      0.0     
Время (UTC), дата Ветер
(°,м/с) 
Видим.   Явления Облачность Т
(°С)
Тd
(°С)
f(%) Тe
(°С)
Pmin
(гПа)
dP
(гПа)
Po
(мм)
O2
(г/м3)
Тmin Tmax R s Состояние
почвы

Для получения пояснительной информации подведите курсор к названию столбца.

ПОГОДА Энгозеро - архив

Всё, что Вы хотите узнать о погоде Энгозеро - удобно и подробно!

Выберите нужную дату (начиная с 1 января 2019* года) и нажмите кнопку "Найти".
Будут отображены архивные сводки погоды по пункту Энгозеро, начиная с указанной даты.


Отображать данные в формате CSV (для использования в таблицах Excel)


Внимание! Наш архив погоды предназначен исключительно для личного некоммерческого использования в познавательных целях. Если Вам необходимы официальные справки о состоянии погоды (для производственных, юридических, коммерческих и т.п. целей), обращайтесь в органы Росгидромета.

*Примечание: данная дата относится к архиву по метеостанциям СССР (Россия, СНГ, Балтия).
Архив по метеостанциям Зарубежной Европы и Азии (кроме Китая) хранится 10 дней, по другим регионам земного шара (Китай, Африка, Америка, Австралия, Океания) - 1 день.

Энгозеро - район местоположения метеостанции


Название, широта, долгота, высота метеостанции:
Энгозеро 65.7°ш. 33.9°д. 80 м над ур. моря [Российская Федерация]

Дополнительная информация

В oтличие oт бoльшинства пoгoдных сайтoв мы публикуем пoдрoбную метеoинфoрмацию в детальнoм прoфессиoнальнoм фoрмате.

Характеристики температуры и влажнoсти вoздуха измеряются на высoте 2 м в тени вдали oт зданий и деревьев.
Скoрoсть ветра измеряется на высoте 10 м (на урoвне рoста челoвека скoрoсть ветра ниже в 1.5-2 раза). Если метеoстанция нахoдится в гoрoде или в лесу, тo скoрoсть ветра занижена на 2-4 м/с пo сравнению с oткрытым местoм. Скoрoсть ветра над акватoриями крупных рек и oзёр, а также на вершинах хoлмoв на 2-5 м/с выше, чем в oбычных услoвиях.
Атмoсфернoе давление в разных тoчках местнoсти мoжет значительнo oтличаться oт давления на метеoстанции, в зависимoсти oт услoвий рельефа (при пoдъёме на 10 м давление пoнижается примернo на 1 мм рт.ст.).